CAPE
20 18 17 8 6 1 0 5 0 10 9 3 4 4 3 2 1 0 0 0 0 0 0 0 0 0 0 0 0 0 0 0 0 0 0 0 0 0 0 0 0 0 0 0 0 0 0 24 457 364 406 977 554 319
20 14 12 11 13 6 0 5 0 10 14 3 1 4 2 1 2 0 0 0 0 0 0 0 0 0 0 0 0 0 0 0 0 0 0 0 0 1 0 0 6 0 0 0 0 0 0 143 394 355 438 657 267 118
17 12 11 1 28 0 0 3 0 7 11 4 1 4 2 2 2 2 0 0 0 0 0 0 0 0 0 0 0 0 0 0 0 0 0 0 4 0 37 42 33 23 53 72 5 15 48 84 197 148 239 517 349 19
17 9 12 7 4 8 5 3 0 5 12 6 2 3 4 1 1 2 0 0 0 0 0 0 0 0 0 0 0 0 0 0 0 0 0 0 0 0 4 11 25 35 90 87 58 78 121 80 59 149 202 223 139 2
15 5 5 18 10 8 12 6 0 0 9 4 3 5 3 2 2 0 2 0 0 0 0 0 0 0 0 0 0 0 0 0 0 0 0 0 0 0 0 0 17 38 104 114 92 107 161 88 116 188 97 213 58 3
11 5 4 14 9 0 10 5 1 0 1 3 3 4 2 0 1 0 0 0 0 0 0 0 0 0 0 0 0 0 0 0 0 0 0 0 0 0 18 36 0 35 1 22 113 52 153 252 272 330 266 153 48 7
15 7 12 9 0 0 5 4 0 0 0 1 1 0 0 0 1 0 0 0 0 0 0 0 0 0 0 0 0 0 0 0 0 0 0 0 0 0 0 30 10 0 0 0 15 130 219 192 157 254 233 120 25 0
7 0 4 10 4 2 0 1 0 0 1 0 0 0 0 0 1 0 0 0 0 0 0 0 0 0 0 6 21 0 0 0 0 0 0 5 4 7 0 0 0 0 0 0 0 80 148 80 140 194 136 87 52 12
12 0 4 10 2 1 0 0 1 0 0 0 0 0 0 0 0 0 0 0 0 0 1 1 0 0 0 0 0 12 0 0 0 0 0 1 0 0 0 0 0 0 0 0 0 42 176 123 89 193 173 112 110 46
4 0 4 4 4 0 0 0 0 0 0 0 0 0 1 0 0 0 0 0 0 0 0 0 0 0 0 0 0 0 1 3 0 0 0 0 0 1 6 0 0 0 0 0 0 71 74 14 76 169 251 228 153 35
5 1 4 6 8 0 0 0 0 0 0 0 0 0 0 0 0 0 0 0 0 0 0 0 0 0 0 0 0 0 0 7 1 0 1 2 0 12 0 0 0 0 0 0 0 0 0 0 0 92 293 223 138 61
5 3 10 5 10 0 0 0 0 0 0 0 0 0 0 0 0 0 0 0 0 5 13 5 17 0 0 0 0 0 0 4 13 2 3 3 35 2 0 0 0 0 1 1 18 7 7 0 0 2 314 365 260 115
2 4 6 4 0 0 0 0 0 0 0 1 0 0 0 0 0 0 4 3 7 17 17 23 5 0 1 0 2 0 0 3 0 0 10 84 3 0 0 0 0 1 1 7 12 13 15 10 0 0 82 231 238 104
1 3 2 2 0 0 0 0 0 0 0 0 0 0 0 0 0 0 3 2 1 3 3 0 0 0 0 2 5 5 2 1 6 0 12 2 1 0 0 0 0 0 1 2 0 12 49 62 0 7 53 130 118 112
2 2 1 0 0 0 0 0 0 0 0 0 0 0 0 0 0 0 0 0 0 0 0 1 0 0 1 0 0 2 2 3 0 0 0 2 0 0 3 2 2 1 1 1 1 21 29 32 63 71 148 140 93 30
2 6 1 0 0 0 0 0 0 0 0 0 0 0 0 0 0 0 1 13 4 8 1 6 1 0 1 1 5 8 5 0 1 2 1 0 0 0 1 0 2 2 0 1 1 33 80 95 107 91 76 62 31 9
0 0 0 0 0 0 0 0 0 0 0 0 0 0 0 0 0 7 18 9 0 7 1 0 0 2 5 3 4 16 4 0 0 0 0 0 1 0 0 2 2 2 2 4 0 14 28 23 17 14 18 3 2 4
0 0 0 0 0 0 0 0 0 0 0 0 0 0 0 0 3 2 0 0 0 0 0 0 0 0 0 0 5 4 0 0 0 0 0 2 2 1 2 2 2 2 3 2 5 13 12 4 0 0 2 3 2 3
0 0 0 0 0 0 0 0 0 0 0 0 0 0 1 1 0 0 0 2 0 2 4 0 0 0 0 2 5 0 0 0 2 1 2 2 2 2 2 1 0 1 1 2 2 0 0 0 1 2 2 3 3 3
0 0 0 0 0 0 0 0 0 0 0 0 0 0 0 0 0 5 5 2 0 12 17 2 1 2 4 0 0 0 0 1 2 2 2 2 2 1 2 2 2 2 2 2 2 2 1 1 2 2 2 2 2 1
0 0 0 0 0 0 0 0 0 0 0 0 0 0 0 1 7 0 0 0 0 0 0 0 0 0 0 0 0 0 1 1 2 1 1 2 2 2 2 2 2 2 2 2 1 1 2 2 2 2 2 2 2 0
0 0 0 0 0 0 0 0 0 0 0 0 0 0 0 2 1 1 0 1 0 0 0 0 0 0 0 0 0 3 3 2 2 2 2 1 2 1 2 2 2 2 2 2 2 2 2 2 2 1 0 0 0 0
0 0 0 0 0 0 0 0 0 0 0 0 0 1 0 1 1 0 2 0 0 0 0 1 0 0 0 3 6 4 2 2 2 2 2 2 2 1 0 0 1 0 1 3 3 6 3 2 7 1 2 7 15 20
0 0 0 0 0 0 0 0 1 3 1 1 0 0 0 2 1 2 0 0 0 1 0 3 6 6 9 2 2 2 3 3 2 2 2 1 0 0 0 0 0 0 0 0 0 0 1 0 5 7 2 2 6 0
0 0 0 0 0 0 0 1 0 0 0 2 0 0 1 4 0 0 1 0 1 0 8 10 6 5 1 1 1 0 0 0 0 0 1 0 0 0 0 0 0 0 2 8 0 4 5 6 2 14 20 20 4 0
0 0 0 0 0 0 1 0 0 0 2 1 1 2 2 1 0 0 2 1 1 0 0 7 9 0 0 1 0 0 0 0 0 0 0 0 0 0 0 0 0 0 0 0 0 0 0 0 0 0 0 0 0 0
0 0 1 0 1 1 1 1 1 0 1 1 2 1 0 0 0 0 0 0 0 0 0 1 1 0 0 0 0 0 0 0 0 0 0 0 0 0 0 2 0 0 0 0 0 0 0 0 0 0 0 0 0 0
0 0 0 2 1 2 0 0 1 0 3 1 1 0 0 0 4 0 0 0 0 0 0 0 0 0 0 0 0 0 0 0 0 0 0 0 0 0 0 0 0 0 0 0 0 0 0 0 0 0 0 0 0 0
0 0 0 0 0 0 0 2 3 3 0 0 0 0 0 0 0 0 0 0 0 0 0 0 0 0 0 0 0 0 0 0 0 0 0 0 0 0 0 0 0 0 0 0 0 0 0 0 0 0 0 0 0 0
0 0 0 2 2 0 0 0 0 0 0 0 0 0 0 0 0 0 0 0 0 0 0 0 0 0 0 0 0 0 0 0 0 0 0 0 0 0 0 0 0 0 0 0 0 0 0 0 0 0 0 0 0 0
0 2 0 0 0 0 0 0 0 0 0 0 0 0 0 0 0 0 0 0 0 0 0 0 0 0 0 0 0 0 0 0 0 0 0 0 0 0 0 0 0 0 0 0 0 0 0 0 0 0 0 0 0 0
1 5 4 5 5 3 2 0 0 0 0 0 0 0 0 0 0 0 0 0 0 0 0 0 0 0 0 0 0 0 0 0 0 0 0 0 0 0 0 0 0 0 0 0 0 0 0 0 0 0 0 0 0 0
7 6 3 0 1 2 3 2 1 4 0 0 0 0 0 0 0 0 0 0 0 0 0 0 0 0 0 0 0 0 0 0 0 0 0 0 0 0 0 0 0 0 0 0 0 0 0 0 0 0 0 0 0 0
CIN
-4 0 0 -1 0 0 0 0 0 -2 -1 -1 -1 0 0 -1 0 0 0 0 0 0 0 0 0 0 0 0 0 0 0 0 0 0 0 0 0 0 0 0 0 0 0 0 0 0 0 -208 -133 -41 -165 -231 -271 -327
-4 -6 -1 0 0 0 0 0 0 -4 -2 0 -1 -1 -1 0 -1 0 0 0 0 0 0 0 0 0 0 0 0 0 0 0 0 0 0 0 0 -13 0 0 -123 0 0 0 0 0 0 -271 -211 -306 -306 -271 -344 -411
-10 -8 -5 -8 -1 0 0 0 0 -4 -2 0 0 0 0 -1 -1 -1 0 0 0 0 0 0 0 0 0 0 0 0 0 0 0 0 0 0 -54 0 -30 -39 -80 -132 -199 -73 -61 -105 -125 -187 -252 -303 -301 -252 -297 -397
-12 -9 -4 -1 -1 0 0 0 0 -3 -1 0 0 0 0 0 -1 -2 0 0 0 0 0 0 0 0 0 0 0 0 0 0 0 0 0 0 0 0 -51 -62 -121 -129 -139 -89 -55 -91 -129 -141 -185 -222 -240 -252 -293 0
-13 -8 -5 -1 0 0 0 0 0 0 -1 0 0 0 0 0 0 0 0 0 0 0 0 0 0 0 0 0 0 0 0 0 0 0 0 0 0 -17 0 0 -99 -143 -80 -40 -12 -117 -92 -102 -190 -187 -203 -194 -262 -120
-5 -5 -1 -1 -1 0 0 0 0 0 0 0 0 0 0 0 0 0 0 0 0 0 0 0 0 0 0 0 0 0 0 0 0 0 0 0 0 -4 -58 -39 -5 -147 -7 -196 -93 -179 -135 -120 -144 -151 -161 -190 -238 -273
0 -1 0 -1 0 0 0 0 0 0 0 0 0 0 0 0 0 0 0 0 0 0 0 0 0 0 0 0 0 0 0 0 0 0 0 0 0 0 0 -37 -116 0 0 0 -142 -110 -62 -87 -99 -129 -164 -202 -270 0
0 0 -1 0 0 0 0 0 0 0 0 0 0 0 0 0 0 0 0 0 0 0 0 0 0 0 0 -47 -43 0 0 0 0 0 0 -24 -9 -11 0 0 0 0 0 0 0 -128 -89 -142 -144 -127 -171 -196 -197 -230
0 0 -2 0 0 0 0 0 0 0 0 0 0 0 0 0 0 0 0 0 0 0 0 0 0 -2 0 0 0 -65 0 0 0 0 0 -2 0 0 0 0 0 0 0 0 0 -124 -63 -73 -111 -127 -149 -171 -141 -171
0 0 -1 0 0 0 0 0 0 0 0 0 0 0 -3 0 0 0 0 0 0 0 -1 0 0 0 0 0 -1 -2 -16 -6 0 -2 0 0 0 -6 -63 -2 0 0 0 0 -5 -54 -73 -81 -79 -100 -82 -94 -109 -196
0 0 0 0 0 0 0 0 0 0 0 0 0 0 0 0 0 0 -5 0 0 0 0 0 0 0 0 -11 0 0 0 -24 -2 0 -5 -3 0 -4 0 0 0 0 0 -53 0 0 0 0 0 -83 -56 -72 -104 -153
-1 0 0 -1 0 0 0 0 0 0 0 0 0 0 0 0 0 -1 -4 0 0 -7 -8 -13 -13 0 0 0 -1 0 0 -13 -5 -18 -13 -9 -16 -42 0 0 0 0 -147 -165 -144 -145 -138 -10 0 -42 -38 -35 -50 -78
-1 -1 -1 -1 0 0 0 0 0 0 0 0 0 0 0 0 0 0 -6 -4 -2 -4 -6 -13 -17 0 -16 0 -6 0 0 -5 0 0 -8 -2 -7 0 0 0 0 -225 -124 -213 -179 -173 -151 -154 -145 0 -48 -69 -74 -87
-2 -2 -1 0 0 0 0 0 0 0 0 0 0 0 0 0 0 0 -1 0 -1 -4 -23 0 -6 0 0 -8 -7 0 -4 -18 -6 -1 0 0 0 0 0 0 0 -144 -116 -213 -12 -184 -174 -153 0 -50 -97 -96 -112 -125
-7 -8 -3 0 0 0 0 0 0 0 0 0 0 0 0 0 0 0 0 0 -13 0 0 -4 0 0 -6 0 -4 -4 0 0 0 0 0 -2 0 0 0 0 0 0 0 0 0 -219 -213 -183 -151 -137 -143 -148 -145 -148
-7 -3 -1 0 0 0 0 0 0 0 0 0 0 0 0 0 0 0 -17 -15 -50 -54 -78 -41 -12 -4 -4 -15 -11 -7 0 0 0 0 -1 0 0 0 0 0 0 0 0 0 -17 -244 -225 -214 -172 -175 -182 -178 -181 -178
-6 0 0 0 0 0 0 0 0 0 0 0 0 0 0 0 0 -32 -28 -39 -7 -25 -25 -1 0 0 -14 -4 -3 -3 -2 0 0 0 0 0 0 0 0 0 0 0 0 0 0 -273 -263 -244 -223 -205 -208 -19 0 0
0 0 0 0 0 0 0 0 0 0 0 0 0 0 0 0 -30 -24 0 0 0 0 0 0 0 0 0 -1 -5 -13 0 0 0 0 0 0 0 -1 0 0 0 0 0 0 0 -196 -180 -201 0 0 0 0 0 0
0 0 0 0 0 0 0 0 0 0 0 0 0 0 -40 -22 0 0 0 -3 0 -9 -13 -1 0 -9 0 -9 -13 0 0 0 0 0 0 0 0 0 0 0 0 0 0 0 0 0 0 0 0 0 0 0 0 0
0 0 0 0 0 0 0 0 0 0 0 0 0 0 0 0 -4 -5 -14 -13 0 -1 -3 0 0 -10 -18 -8 0 0 0 0 0 0 0 0 0 0 0 0 0 0 0 0 0 0 0 0 0 0 0 0 0 0
0 0 0 0 0 0 0 0 0 0 0 0 0 0 0 -7 -7 0 0 0 0 0 0 0 0 -1 0 0 0 0 0 0 0 -1 0 -1 0 0 0 0 0 0 0 0 0 0 0 0 0 0 0 0 0 0
0 0 0 0 0 0 0 0 0 0 0 0 0 -7 -2 0 0 0 0 0 0 0 0 0 0 0 0 0 0 0 0 0 0 0 0 0 0 0 0 0 0 0 0 0 0 0 0 0 0 -4 0 0 0 0
0 0 0 0 0 0 0 0 0 0 0 -1 0 -1 0 0 0 0 0 0 0 0 0 0 0 0 0 -6 -6 -7 -8 0 0 0 0 0 0 0 0 0 0 0 -7 -6 -10 -8 -6 -9 -7 0 -7 -10 -6 0
0 0 0 0 0 0 0 -2 0 0 0 0 0 0 0 0 0 0 0 0 0 0 -2 -2 -3 -2 -4 -9 0 0 -6 -6 -2 -3 0 0 0 0 0 0 0 0 0 0 0 0 -23 -23 -25 -18 -19 -13 -19 -5
0 0 0 0 0 0 0 0 0 0 0 0 0 0 0 0 0 0 0 0 0 0 -6 -4 -4 -4 0 0 0 0 0 0 -2 0 0 -9 0 0 0 0 0 0 -17 -29 -23 -16 -32 -54 -36 -22 -10 -7 -12 0
0 0 0 0 0 0 0 0 0 0 0 0 0 0 0 0 0 0 0 0 0 0 0 -12 -11 -11 0 0 0 0 0 0 -3 0 0 0 0 0 0 0 0 0 0 0 0 0 0 0 0 0 0 0 0 0
0 0 0 0 0 0 0 0 0 0 0 0 0 0 0 0 0 0 0 0 0 0 0 -31 -29 -1 0 -23 0 0 0 0 0 0 0 0 0 0 0 -56 0 0 0 0 0 0 0 0 0 0 0 0 0 0
0 0 0 0 0 0 0 0 0 0 0 -2 -2 0 0 0 -2 0 0 0 -29 0 0 0 0 0 0 0 0 0 0 0 0 0 0 0 0 0 0 0 0 0 0 0 0 0 0 0 0 0 0 0 0 0
0 0 0 0 -1 0 0 -1 -1 -2 0 0 0 0 0 0 0 0 0 0 0 0 0 0 0 0 0 0 0 0 0 0 0 0 0 0 0 0 0 0 0 0 0 0 0 0 0 0 0 0 0 0 0 0
0 0 0 -6 -4 0 0 0 0 0 0 0 0 0 0 0 0 0 0 0 0 0 0 0 0 0 0 0 0 0 0 0 0 0 0 0 0 0 0 0 0 0 0 0 0 0 0 0 0 0 0 0 0 0
0 -5 0 0 0 0 0 0 0 -18 0 0 0 0 0 0 0 0 0 0 0 0 0 0 0 0 0 0 0 0 0 0 0 0 0 0 0 0 0 0 0 0 0 0 0 0 0 0 0 0 0 0 0 0
-1 0 -2 -2 -5 -16 -9 0 0 0 0 0 0 0 0 0 0 0 0 0 0 0 0 0 0 0 0 0 0 0 0 0 0 0 0 0 0 0 0 0 0 0 0 0 0 0 0 0 0 0 0 0 0 0
-2 -2 -3 -1 -1 -1 -7 -7 -11 -11 -17 0 0 0 0 -2 -2 0 0 0 0 0 0 0 0 0 0 0 0 0 0 0 0 0 0 0 0 0 0 0 0 0 0 0 0 0 0 0 0 0 0 0 0 0
Wind_Speed
16 19 21 22 23 26 26 25 25 24 23 23 22 22 22 22 22 20 18 18 18 20 23 21 22 22 22 21 24 21 23 23 25 26 26 25 26 25 25 22 23 22 25 27 25 30 34 19 18 20 21 21 21 21
14 17 19 21 19 25 25 24 24 24 23 23 22 22 21 21 21 20 18 18 19 20 21 20 23 25 24 23 20 20 21 20 21 25 25 23 25 24 25 28 22 25 24 26 23 26 20 19 21 20 22 25 22 20
14 14 19 25 19 21 24 24 24 24 23 23 23 22 22 21 21 20 20 20 18 20 21 19 18 16 20 26 20 19 18 18 18 18 21 23 26 22 26 26 25 22 19 22 21 20 21 22 22 21 21 22 22 18
13 13 18 21 21 21 23 24 24 24 23 23 23 23 22 21 21 20 18 17 18 17 18 16 17 17 15 14 15 19 17 16 16 18 20 23 24 21 24 24 25 23 21 23 25 23 22 22 22 21 20 19 17 14
13 14 16 22 21 24 23 24 24 24 24 24 24 23 22 22 21 20 19 18 18 16 17 17 18 14 15 13 13 14 17 20 19 20 21 23 21 22 22 24 26 21 23 25 25 23 22 20 19 18 18 17 15 12
13 16 15 23 20 24 22 24 24 24 24 24 24 24 23 22 20 17 17 16 15 16 17 15 16 15 15 14 12 11 12 17 19 19 21 21 20 22 26 27 22 20 23 24 25 25 23 22 18 17 18 17 14 14
12 15 14 18 21 22 23 23 24 24 24 25 25 24 24 22 18 17 16 16 12 15 16 16 16 15 15 13 12 12 9 13 15 18 20 21 21 22 26 28 22 25 26 25 23 20 21 19 20 17 17 16 15 15
14 13 11 19 21 22 22 23 23 24 24 24 24 25 23 17 17 17 16 16 13 16 16 17 17 16 15 14 13 12 12 13 14 17 18 20 19 21 27 26 29 28 27 23 20 20 20 20 17 16 15 15 15 14
15 16 9 19 20 21 22 23 23 23 23 23 21 13 13 14 16 16 15 12 9 17 17 17 17 15 17 15 14 13 13 15 16 17 18 15 19 23 22 24 26 27 27 29 28 23 19 18 17 15 14 14 15 14
18 15 9 19 21 21 21 22 22 22 23 20 16 17 17 15 18 15 16 17 16 15 16 18 15 15 16 15 14 14 14 16 17 16 14 17 21 17 19 22 24 25 27 28 28 25 21 21 21 17 15 15 14 13
16 6 14 21 22 20 21 21 20 20 16 15 17 18 17 18 15 17 18 18 16 18 15 15 15 16 14 16 16 15 16 16 17 15 14 17 19 15 19 23 24 24 25 26 29 31 29 27 25 21 16 13 13 12
13 4 19 22 21 19 20 19 17 15 16 18 18 17 17 16 16 18 18 16 17 17 13 14 15 13 14 14 15 15 15 15 15 13 13 16 12 15 22 25 27 27 28 30 30 32 31 30 26 23 21 17 13 11
9 11 20 22 20 20 19 18 16 16 16 15 17 17 17 17 18 19 18 16 17 16 14 15 15 14 13 13 13 14 13 10 17 19 14 13 14 22 25 27 27 27 29 31 32 32 33 32 27 22 21 18 13 10
11 19 22 21 21 20 19 18 16 15 16 18 19 20 19 19 19 17 13 13 15 14 17 17 15 13 13 11 18 17 17 16 16 15 11 9 23 26 28 27 27 28 29 30 30 30 29 29 22 20 21 17 8 2
18 22 22 22 22 21 19 18 16 15 16 18 18 20 20 18 17 18 18 16 14 17 17 15 14 14 19 19 18 17 17 16 15 13 7 12 23 26 28 27 27 27 27 27 27 28 26 16 10 13 13 9 5 1
22 18 22 23 23 21 19 17 16 16 17 17 17 17 17 17 15 14 14 15 16 17 16 16 17 19 19 18 18 19 17 16 14 11 16 18 20 22 23 25 26 25 24 24 22 15 10 6 6 8 8 6 5 1
19 19 24 24 21 19 18 17 18 18 17 17 16 17 18 18 18 16 15 16 17 17 17 17 19 19 18 18 18 18 17 16 16 18 16 14 15 17 19 20 20 19 15 11 6 4 4 6 6 6 7 7 5 7
18 20 24 22 18 17 17 18 19 17 18 17 16 15 13 14 15 15 16 16 16 17 16 18 18 20 20 20 18 18 17 17 17 14 12 12 12 12 10 15 12 9 7 4 6 7 6 7 7 7 7 6 6 6
18 15 15 19 18 18 19 19 18 18 17 16 15 15 16 16 16 17 18 18 18 18 18 18 19 20 21 20 18 19 19 18 16 14 13 13 10 20 14 8 4 3 3 5 5 3 5 7 11 6 5 6 5 4
16 16 19 18 17 18 18 18 17 18 19 18 17 16 17 17 17 18 18 18 18 18 19 19 20 20 20 20 19 18 17 15 14 12 12 11 10 14 13 5 9 9 4 2 9 11 12 3 3 2 1 9 12 9
18 18 17 17 17 17 17 17 18 18 17 18 17 17 17 17 17 17 17 18 18 18 19 19 20 20 20 20 18 16 14 13 14 15 14 21 10 22 15 1 0 3 5 6 10 12 13 12 12 13 13 15 16 14
17 17 16 16 16 16 17 17 18 16 17 17 17 16 17 17 16 15 14 15 17 18 18 18 18 18 17 16 15 13 11 10 11 8 7 7 15 18 4 1 4 6 9 10 12 14 15 16 17 18 19 19 17 16
16 16 16 15 17 16 17 17 17 16 17 16 16 16 15 14 14 14 15 14 15 15 16 16 15 15 15 7 11 13 13 14 11 6 4 8 14 21 15 3 3 10 13 12 19 23 25 19 14 26 27 23 21 22
14 15 16 16 15 16 16 17 16 16 16 16 15 15 13 13 12 12 13 12 11 11 10 9 12 6 6 5 6 5 5 8 6 7 7 11 23 13 13 16 14 15 15 13 10 11 20 7 28 29 28 25 24 23
16 15 15 16 15 17 17 17 17 16 16 16 15 14 13 13 14 14 13 12 10 9 8 3 4 8 10 12 16 19 19 23 26 15 14 15 15 8 8 6 8 12 16 20 18 22 20 22 22 23 23 22 22 21
16 15 16 17 17 18 18 18 17 18 17 17 15 16 16 17 14 14 13 12 13 12 11 14 16 8 6 7 7 11 20 20 8 8 6 8 8 15 26 25 23 7 5 22 25 24 23 22 22 21 21 22 22 22
16 16 15 15 16 16 17 18 18 18 19 19 19 18 18 17 13 13 14 16 16 14 15 13 11 8 7 10 20 21 17 10 9 6 6 8 9 9 15 20 20 22 22 20 20 21 21 21 21 21 19 18 19 20
16 15 15 16 17 19 20 19 18 18 19 19 21 18 17 18 19 18 19 20 20 19 15 12 9 10 9 10 16 5 12 20 23 23 22 18 15 14 15 15 17 20 19 19 20 20 20 20 19 18 19 19 19 19
14 16 16 16 18 18 17 15 16 16 22 23 19 17 17 18 19 19 19 21 22 20 16 13 13 19 16 23 11 23 25 24 24 23 22 22 21 20 20 20 19 19 19 19 18 18 17 17 15 16 17 18 18 19
13 18 18 19 19 16 13 15 19 22 22 19 18 18 16 16 15 17 21 24 24 22 20 19 21 27 27 25 24 23 21 21 21 20 19 18 19 19 18 18 17 17 17 17 17 17 17 16 16 17 17 17 18 18
13 13 14 15 16 15 16 18 16 13 11 12 12 11 12 14 12 12 15 18 21 22 22 22 22 22 22 22 21 20 19 18 18 18 18 18 17 17 17 16 17 16 16 16 16 16 16 16 17 17 17 18 18 18
9 8 7 7 8 12 11 10 10 9 10 10 9 9 9 8 9 12 15 20 23 23 23 21 20 20 19 19 18 17 17 17 17 17 17 17 17 17 17 17 17 17 17 16 16 16 16 17 17 17 17 18 18 18
6 7 5 4 4 5 6 6 6 6 7 7 9 10 10 11 10 10 14 16 17 18 18 18 18 17 17 16 17 18 18 18 18 18 19 19 18 18 18 18 17 17 16 16 17 17 17 17 17 17 18 18 18 18
Wind_Direction
349 340 333 327 326 311 310 309 304 299 301 302 310 314 315 318 322 323 317 320 305 289 280 277 275 271 271 272 270 277 275 273 270 266 269 269 270 269 271 272 270 265 265 268 271 270 267 294 293 284 292 294 300 307
349 342 332 329 335 314 306 305 303 294 295 297 302 304 305 309 314 324 319 321 312 290 284 287 279 272 271 271 277 280 277 279 275 268 268 274 272 274 269 266 275 269 272 269 273 275 291 295 290 298 295 289 299 310
343 341 329 317 328 325 304 299 296 291 294 291 293 295 297 301 302 306 309 310 311 293 285 283 284 291 278 260 268 276 283 283 282 285 276 272 271 276 269 269 272 274 279 277 279 286 290 291 294 297 298 293 297 305
336 337 327 319 319 322 304 294 290 286 290 286 286 288 288 291 290 291 298 308 304 298 279 283 296 291 296 286 266 266 288 294 292 288 280 275 272 280 274 277 273 276 276 275 279 287 292 292 293 296 301 302 304 308
329 328 326 311 313 304 303 289 284 282 282 281 281 281 281 284 285 284 279 287 279 285 278 274 268 291 290 297 287 283 274 279 288 287 282 277 281 280 279 277 273 280 277 273 275 289 290 297 300 299 300 302 307 310
317 316 321 307 308 299 300 288 280 277 276 276 276 275 274 279 283 284 284 296 306 275 262 272 268 276 283 298 305 305 298 280 284 288 286 284 286 282 275 271 280 282 287 285 282 290 288 295 299 301 298 297 302 305
307 308 316 311 299 296 291 282 276 273 273 273 271 269 268 271 277 277 282 290 344 284 253 261 269 279 286 312 315 316 326 307 297 293 286 287 286 283 274 268 280 283 287 288 291 289 286 290 290 297 299 301 302 308
295 302 316 298 293 289 284 275 272 270 270 270 269 264 259 270 274 273 286 250 313 283 273 271 269 278 303 305 310 321 321 312 308 303 301 289 291 286 276 274 278 279 279 283 291 290 290 291 294 298 299 299 299 301
282 286 313 287 285 283 278 270 269 267 269 267 266 275 282 278 272 282 301 319 329 276 267 273 269 284 298 311 315 317 319 312 316 304 300 303 291 282 286 285 284 277 272 271 278 280 287 292 295 297 300 300 297 298
270 278 303 279 275 274 272 266 267 267 266 260 258 256 260 274 276 288 282 275 278 287 285 263 292 288 307 313 322 322 326 316 313 313 328 300 293 301 298 293 289 283 276 272 269 270 278 286 294 298 299 296 294 296
263 276 282 266 259 266 265 262 266 268 261 257 250 253 264 267 277 272 261 261 271 262 285 286 300 298 330 317 323 328 324 328 321 324 320 317 308 309 303 295 290 283 277 273 267 262 267 275 282 295 295 296 296 292
254 263 262 250 249 257 257 256 265 262 257 249 252 259 260 264 266 259 258 266 265 268 301 303 319 351 345 349 339 336 327 330 325 345 335 325 336 324 293 290 282 275 270 267 263 261 264 270 277 280 281 285 292 293
244 256 246 237 242 246 246 248 257 257 255 252 249 248 252 256 249 246 248 261 267 280 301 309 328 350 13 10 9 341 358 10 245 206 169 346 335 309 289 275 270 267 260 255 257 256 260 266 270 275 280 283 287 293
234 236 227 228 231 234 236 241 248 250 243 237 233 232 237 239 244 252 264 279 272 281 284 300 332 2 3 264 213 197 188 190 184 170 131 121 274 279 280 271 263 259 261 258 253 257 260 254 264 270 274 280 296 277
221 215 218 218 221 225 229 233 238 240 236 229 231 225 230 241 243 246 254 262 285 278 296 335 349 307 239 227 217 211 194 182 192 186 125 227 257 264 271 268 263 257 257 253 251 249 254 277 283 281 290 300 319 321
205 211 213 210 212 217 223 229 231 232 232 234 236 234 238 237 243 250 257 266 275 273 262 279 285 246 237 230 230 224 195 188 194 189 250 257 257 256 249 257 265 259 260 265 266 276 285 297 305 305 311 320 332 39
202 208 201 203 209 213 219 222 220 220 224 229 234 238 237 234 234 249 258 262 254 245 256 248 241 238 231 238 246 198 199 216 239 258 255 251 243 239 236 234 240 258 277 291 317 352 27 30 26 8 347 338 323 291
201 198 191 198 205 210 215 217 213 218 217 217 221 225 235 237 241 249 251 253 250 241 215 212 233 232 235 226 209 226 233 240 249 248 249 244 235 200 160 154 258 266 282 307 35 56 45 24 4 353 349 327 292 288
189 195 197 195 205 208 208 210 213 210 213 221 224 232 231 237 245 244 245 246 248 228 228 217 220 228 221 222 224 243 250 253 249 251 248 248 233 108 16 338 322 300 219 208 209 260 300 301 252 293 9 8 14 3
184 190 193 202 210 206 205 209 217 213 209 216 225 230 232 233 246 245 254 256 248 203 209 214 221 227 231 237 242 242 240 238 224 221 205 266 307 22 60 228 195 193 196 335 16 19 37 360 7 23 10 47 53 39
182 190 197 202 205 208 210 213 211 214 218 219 230 233 226 234 235 247 248 262 235 222 226 232 235 235 242 244 237 231 223 205 180 168 194 146 14 56 38 277 15 36 32 21 30 34 37 34 34 42 44 51 53 53
184 190 196 203 206 212 210 212 211 220 220 221 230 233 221 216 220 225 225 192 214 220 225 228 231 236 231 224 226 244 267 318 346 346 1 16 39 50 9 345 25 27 25 27 32 37 41 45 52 61 62 64 60 58
188 196 200 206 201 203 203 212 210 216 209 215 215 208 212 213 214 216 197 197 200 209 214 213 215 206 194 266 345 359 6 28 17 8 34 42 44 55 43 50 137 56 54 50 56 65 70 62 64 73 82 79 66 66
196 196 197 197 201 199 205 200 207 205 204 204 200 205 209 205 204 198 189 194 202 213 210 208 194 231 325 334 358 16 162 157 116 111 119 72 63 65 134 138 138 142 143 147 144 149 151 160 80 87 87 74 70 70
184 189 191 189 195 189 190 192 191 190 186 186 192 190 192 189 169 169 171 183 193 184 191 192 159 151 143 136 136 137 142 140 138 139 144 145 144 117 83 100 142 156 156 57 54 62 58 61 61 65 67 69 74 71
175 183 182 183 184 182 183 180 182 179 180 176 178 177 173 166 165 161 171 171 169 168 166 161 159 157 140 148 94 138 144 143 118 80 133 157 159 53 67 65 58 39 186 62 73 71 66 62 60 58 59 65 72 77
170 174 182 191 187 187 181 177 177 176 172 168 166 163 161 158 159 161 166 170 162 162 158 156 156 158 153 161 157 152 157 160 43 64 153 29 24 16 38 52 52 67 64 52 55 58 61 62 62 57 51 41 41 54
171 173 169 172 171 170 169 170 170 169 170 170 165 165 165 161 157 157 153 156 156 159 160 162 162 164 163 165 164 166 44 58 62 62 56 41 25 20 22 24 34 52 49 49 58 60 63 61 55 42 47 48 43 42
182 180 178 170 170 171 173 178 178 177 165 161 163 162 161 159 158 157 159 158 155 155 160 163 164 156 147 131 174 104 88 80 72 64 60 58 60 47 51 55 46 42 46 46 33 39 42 39 16 25 34 38 38 38
179 176 176 173 171 174 182 176 163 159 160 163 163 162 165 170 176 172 161 151 147 148 154 155 150 125 93 79 71 61 56 61 60 57 49 45 49 57 46 40 36 37 38 39 37 32 27 17 13 19 28 35 38 35
172 169 163 163 164 164 160 163 167 168 172 171 172 170 171 173 176 186 179 169 150 134 130 131 135 134 119 102 87 67 61 49 46 46 44 41 35 25 23 21 19 24 25 28 23 22 23 18 20 24 27 29 31 30
172 157 135 117 154 177 183 190 200 200 200 202 205 207 213 216 217 204 188 148 108 94 92 81 81 85 87 75 56 41 40 41 35 34 31 29 24 18 14 11 11 15 18 16 14 15 14 18 23 25 26 25 24 23
185 192 192 186 190 206 224 241 256 261 265 261 246 248 258 261 287 298 33 83 82 79 70 68 71 69 62 50 52 53 49 46 46 42 40 39 40 35 24 10 1 358 360 3 9 15 17 23 25 26 25 24 23 23